Seattle, WA
on Thursday, November 29, 2012

Thursday
Previous Day Next Day
Daily Summary
 ActualAverageRecord
Temperature
Mean Temperature °F 42°F  
Max Temperature 55°F 48°F 59°F (1999)
Min Temperature 46°F 37°F 18°F (2006)
Degree Days
Heating Degree Days 14 23  
Month to date heating degree days 522 564  
Since 1 July heating degree days 1015 1161  
Cooling Degree Days 0 0  
Month to date cooling degree days 0 0  
Year to date cooling degree days 177 189  
Moisture
Dew Point 40°F   
Average Humidity 74    
Maximum Humidity 86    
Minimum Humidity 61    
Precipitation
Precipitation 0.06 in 0.23 in 1.08 in (1964)
Month to date precipitation 6.88 6.35  
Year to date precipitation 40.01 31.92  
Snow
Snow 0.00 in in 1.00 in (2006)
Month to date snowfall 0.0  
Since 1 July snowfall 0.0  
Snow Depth 0.00 in   
Wind
Wind Speed 10 mph   
Max Wind Speed 17 mph   
Max Gust Speed 21 mph   
Visibility 10 miles   
Events Rain   

Key: T is trace of precipitation, MM is missing value
Source: NWS Daily Summary
Time(PST)TemperatureDew PointHumidity Pressure Visibility Wind DirectionWind SpeedGust SpeedPrecipitationEvents Conditions
12:53 AM 46.9°F 37.9°F 71% 29.72 in 10.0 miles SE 9.2 mph - N/A   Mostly Cloudy
1:53 AM 46.0°F 37.9°F 73% 29.70 in 10.0 miles ESE 5.8 mph - N/A   Overcast
2:53 AM 46.9°F 37.0°F 68% 29.68 in 10.0 miles ESE 13.8 mph - N/A   Mostly Cloudy
3:53 AM 48.9°F 37.0°F 64% 29.64 in 10.0 miles ESE 9.2 mph - N/A   Mostly Cloudy
4:53 AM 50.0°F 37.0°F 61% 29.61 in 10.0 miles East 11.5 mph - 0.00 in   Mostly Cloudy
5:53 AM 50.0°F 37.0°F 61% 29.58 in 10.0 miles ESE 15.0 mph - N/A   Overcast
6:53 AM 50.0°F 39.0°F 66% 29.56 in 10.0 miles ESE 12.7 mph - 0.01 in Rain Light Rain
7:53 AM 51.8°F 39.2°F 62% 29.53 in 10.0 miles SE 11.5 mph - N/A Rain Light Rain
8:53 AM 51.1°F 39.9°F 66% 29.59 in 10.0 miles SSE 4.6 mph - 0.00 in Rain Light Rain
9:53 AM 48.9°F 44.1°F 83% 29.63 in 10.0 miles West 9.2 mph - 0.02 in Rain Light Rain
10:53 AM 51.1°F 44.1°F 77% 29.63 in 10.0 miles South 10.4 mph - 0.01 in   Overcast
11:53 AM 53.1°F 43.0°F 69% 29.63 in 10.0 miles South 12.7 mph - N/A   Overcast
12:53 PM 52.0°F 44.1°F 74% 29.62 in 10.0 miles South 6.9 mph - 0.01 in Rain Light Rain
1:53 PM 55.0°F 43.0°F 64% 29.60 in 10.0 miles South 9.2 mph - 0.01 in   Mostly Cloudy
2:53 PM 53.1°F 43.0°F 69% 29.60 in 10.0 miles South 8.1 mph - N/A   Overcast
3:53 PM 53.1°F 42.1°F 66% 29.59 in 10.0 miles South 8.1 mph - N/A   Mostly Cloudy
4:53 PM 52.0°F 42.1°F 69% 29.57 in 10.0 miles SSE 8.1 mph - N/A   Mostly Cloudy
5:53 PM 53.1°F 41.0°F 64% 29.56 in 10.0 miles ESE 6.9 mph - N/A   Overcast
6:53 PM 51.1°F 39.0°F 63% 29.55 in 10.0 miles SE 11.5 mph - 0.00 in Rain Light Rain
7:53 PM 50.0°F 37.9°F 63% 29.53 in 10.0 miles ESE 8.1 mph - 0.00 in   Overcast
8:53 PM 50.0°F 39.0°F 66% 29.53 in 10.0 miles ESE 9.2 mph - 0.00 in Rain Light Rain
9:53 PM 48.9°F 39.0°F 69% 29.52 in 10.0 miles East 10.4 mph - 0.00 in   Mostly Cloudy
10:53 PM 48.9°F 37.9°F 66% 29.49 in 10.0 miles East 9.2 mph - N/A   Mostly Cloudy
11:53 PM 48.9°F 39.0°F 69% 29.47 in 10.0 miles SE 8.1 mph - 0.00 in Rain Light Rain
Moon Phase
Nov. 29 Dec. 06 Dec. 13 Dec. 20 Dec. 28
Sunrise:07:34 AM (PST) Moon Rise:05:28 PM (PST)11/29
Sunset:04:21 PM (PST) Moon Set:08:25 AM (PST)11/29

Copyright © 2014 The Weather Underground, Inc.